DLH830 EDDF-EKCH

Flight info

Callsign DLH830
Flight time 1h 0m
Altitude 37000
Route MARUN3W/25C MARUN Y150 TOLGI DCT SAS DCT MAKEL N851 GESKA Z711 MONAK
Aircraft A320/M-SDE3FGHIRWY/LB1

Departure

Time 2026-05-07 13:12
Airport Frankfurt Main Airport (EDDF)

Arrival

Time 2026-05-07 14:13
Airport Copenhagen Kastrup Airport (EKCH)
Time Latitude Longitude Altitude Speed Heading
2026-05-07 12:30 50.04533 8.56587 362 ft 0 kts 115°
2026-05-07 13:00 50.04535 8.56578 364 ft 4 kts 115°
2026-05-07 13:00 50.04547 8.56540 361 ft 4 kts 118°
2026-05-07 13:00 50.04561 8.56504 359 ft 4 kts 126°
2026-05-07 13:01 50.04578 8.56474 364 ft 4 kts 156°
2026-05-07 13:01 50.04592 8.56469 362 ft 1 kts 205°
2026-05-07 13:01 50.04573 8.56456 359 ft 3 kts 205°
2026-05-07 13:01 50.04570 8.56454 360 ft 1 kts 205°
2026-05-07 13:04 50.04564 8.56450 356 ft 4 kts 205°
2026-05-07 13:04 50.04540 8.56432 359 ft 6 kts 207°
2026-05-07 13:05 50.04514 8.56374 361 ft 7 kts 248°
2026-05-07 13:05 50.04490 8.56274 356 ft 12 kts 249°
2026-05-07 13:05 50.04457 8.56139 358 ft 14 kts 249°
2026-05-07 13:05 50.04428 8.56028 361 ft 6 kts 239°
2026-05-07 13:06 50.04398 8.56023 356 ft 5 kts 159°
2026-05-07 13:06 50.04347 8.56053 362 ft 8 kts 159°
2026-05-07 13:06 50.04296 8.56101 360 ft 10 kts 124°
2026-05-07 13:06 50.04287 8.56195 355 ft 8 kts 112°
2026-05-07 13:07 50.04238 8.56242 360 ft 8 kts 159°
2026-05-07 13:07 50.04183 8.56273 361 ft 9 kts 160°
2026-05-07 13:07 50.04145 8.56337 361 ft 8 kts 93°
2026-05-07 13:07 50.04163 8.56427 358 ft 12 kts 69°
2026-05-07 13:08 50.04201 8.56585 362 ft 19 kts 69°
2026-05-07 13:08 50.04253 8.56807 359 ft 23 kts 70°
2026-05-07 13:08 50.04310 8.57043 361 ft 24 kts 69°
2026-05-07 13:08 50.04367 8.57284 362 ft 24 kts 70°
2026-05-07 13:09 50.04427 8.57537 368 ft 25 kts 70°
2026-05-07 13:09 50.04486 8.57782 368 ft 23 kts 70°
2026-05-07 13:09 50.04534 8.57985 365 ft 17 kts 69°
2026-05-07 13:09 50.04574 8.58150 365 ft 15 kts 70°
2026-05-07 13:10 50.04617 8.58331 370 ft 20 kts 70°
2026-05-07 13:10 50.04654 8.58488 370 ft 10 kts 76°
2026-05-07 13:10 50.04623 8.58570 369 ft 10 kts 151°
2026-05-07 13:10 50.04560 8.58608 371 ft 8 kts 159°
2026-05-07 13:11 50.04502 8.58625 371 ft 7 kts 201°
2026-05-07 13:11 50.04482 8.58569 370 ft 8 kts 250°
2026-05-07 13:11 50.04400 8.58227 368 ft 69 kts 250°
2026-05-07 13:11 50.04157 8.57209 365 ft 129 kts 250°
2026-05-07 13:12 50.03790 8.55662 454 ft 167 kts 249°
2026-05-07 13:12 50.03379 8.53967 1183 ft 168 kts 250°
2026-05-07 13:12 50.02973 8.52266 1894 ft 175 kts 252°
2026-05-07 13:12 50.02500 8.50433 2405 ft 192 kts 242°
2026-05-07 13:13 50.01570 8.48821 2907 ft 211 kts 217°
2026-05-07 13:13 50.00188 8.47950 3652 ft 216 kts 190°
2026-05-07 13:13 49.98695 8.47674 4551 ft 215 kts 189°
2026-05-07 13:13 49.97208 8.47360 5378 ft 217 kts 190°
2026-05-07 13:14 49.95716 8.46930 6153 ft 221 kts 197°
2026-05-07 13:14 49.94169 8.46220 6599 ft 242 kts 198°
2026-05-07 13:14 49.92537 8.45362 7287 ft 251 kts 208°
2026-05-07 13:14 49.91240 8.43639 8031 ft 252 kts 238°
2026-05-07 13:15 49.90637 8.41113 8868 ft 252 kts 266°
2026-05-07 13:15 49.90885 8.38445 9731 ft 253 kts 294°
2026-05-07 13:15 49.91919 8.36251 10521 ft 256 kts 321°
2026-05-07 13:15 49.93491 8.34911 11271 ft 263 kts 335°
2026-05-07 13:16 49.95242 8.33757 11590 ft 285 kts 336°
2026-05-07 13:16 49.97158 8.32550 11838 ft 309 kts 337°
2026-05-07 13:16 49.99231 8.31252 12042 ft 333 kts 337°
2026-05-07 13:16 50.01415 8.29917 12362 ft 349 kts 341°
2026-05-07 13:17 50.03807 8.29096 13013 ft 356 kts 353°
2026-05-07 13:17 50.06295 8.29049 13719 ft 362 kts
2026-05-07 13:17 50.08777 8.29827 14368 ft 367 kts 16°
2026-05-07 13:17 50.11211 8.31088 15013 ft 371 kts 17°
2026-05-07 13:18 50.13666 8.32375 15651 ft 374 kts 17°
2026-05-07 13:18 50.16146 8.33681 16275 ft 378 kts 17°
2026-05-07 13:18 50.18648 8.35001 16888 ft 381 kts 17°
2026-05-07 13:18 50.21138 8.36313 17490 ft 385 kts 17°
2026-05-07 13:19 50.23686 8.37653 18078 ft 388 kts 17°
2026-05-07 13:19 50.26255 8.39005 18626 ft 392 kts 17°
2026-05-07 13:19 50.28847 8.40370 19147 ft 395 kts 17°
2026-05-07 13:19 50.31456 8.41755 19671 ft 398 kts 18°
2026-05-07 13:20 50.34086 8.43180 20188 ft 401 kts 18°
2026-05-07 13:20 50.36717 8.44624 20682 ft 403 kts 18°
2026-05-07 13:20 50.39340 8.46242 21166 ft 407 kts 22°
2026-05-07 13:20 50.41944 8.48031 21646 ft 410 kts 23°
2026-05-07 13:21 50.44511 8.49882 22122 ft 413 kts 24°
2026-05-07 13:21 50.47123 8.51811 22599 ft 416 kts 24°
2026-05-07 13:21 50.49741 8.53756 23058 ft 419 kts 24°
2026-05-07 13:21 50.52396 8.55717 23524 ft 422 kts 24°
2026-05-07 13:22 50.55058 8.57672 23913 ft 425 kts 24°
2026-05-07 13:22 50.57751 8.59638 24291 ft 427 kts 24°
2026-05-07 13:22 50.60456 8.61602 24664 ft 429 kts 24°
2026-05-07 13:22 50.63176 8.63572 25047 ft 431 kts 24°
2026-05-07 13:23 50.65873 8.65523 25399 ft 434 kts 24°
2026-05-07 13:23 50.68619 8.67516 25761 ft 436 kts 24°
2026-05-07 13:23 50.71381 8.69526 26131 ft 438 kts 24°
2026-05-07 13:23 50.74151 8.71547 26495 ft 440 kts 24°
2026-05-07 13:24 50.76940 8.73588 26853 ft 442 kts 24°
2026-05-07 13:24 50.79733 8.75637 27202 ft 444 kts 24°
2026-05-07 13:24 50.82539 8.77701 27547 ft 446 kts 24°
2026-05-07 13:24 50.85359 8.79777 27875 ft 448 kts 24°
2026-05-07 13:25 50.88192 8.81867 28197 ft 450 kts 24°
2026-05-07 13:25 50.90998 8.83941 28516 ft 452 kts 24°
2026-05-07 13:25 50.93853 8.86052 28835 ft 454 kts 24°
2026-05-07 13:25 50.96720 8.88173 29143 ft 456 kts 24°
2026-05-07 13:26 50.99599 8.90302 29469 ft 457 kts 24°
2026-05-07 13:26 51.02472 8.92430 29906 ft 455 kts 25°
2026-05-07 13:26 51.05342 8.94558 30312 ft 454 kts 25°
2026-05-07 13:26 51.08206 8.96683 30662 ft 454 kts 25°
2026-05-07 13:27 51.11064 8.98805 31002 ft 454 kts 25°
2026-05-07 13:27 51.13927 9.00938 31332 ft 454 kts 25°
2026-05-07 13:27 51.16742 9.03040 31669 ft 453 kts 25°
2026-05-07 13:27 51.19595 9.05175 32008 ft 453 kts 25°
2026-05-07 13:28 51.22447 9.07313 32341 ft 453 kts 25°
2026-05-07 13:28 51.25297 9.09453 32691 ft 452 kts 25°
2026-05-07 13:28 51.28142 9.11593 33036 ft 452 kts 25°
2026-05-07 13:28 51.30987 9.13733 33400 ft 451 kts 25°
2026-05-07 13:29 51.33819 9.15867 33758 ft 450 kts 24°
2026-05-07 13:29 51.36654 9.18000 34111 ft 449 kts 24°
2026-05-07 13:29 51.39480 9.20128 34392 ft 449 kts 24°
2026-05-07 13:29 51.42272 9.22236 34624 ft 450 kts 25°
2026-05-07 13:30 51.45108 9.24381 34857 ft 451 kts 25°
2026-05-07 13:30 51.47946 9.26531 35079 ft 452 kts 25°
2026-05-07 13:30 51.50796 9.28693 35299 ft 453 kts 24°
2026-05-07 13:30 51.53648 9.30863 35511 ft 454 kts 25°
2026-05-07 13:31 51.56502 9.33043 35715 ft 455 kts 25°
2026-05-07 13:31 51.59362 9.35229 35920 ft 456 kts 25°
2026-05-07 13:31 51.62196 9.37392 36116 ft 457 kts 24°
2026-05-07 13:31 51.65068 9.39583 36311 ft 458 kts 25°
2026-05-07 13:32 51.67950 9.41785 36508 ft 458 kts 25°
2026-05-07 13:32 51.70831 9.43988 36716 ft 459 kts 25°
2026-05-07 13:32 51.73717 9.46200 36914 ft 459 kts 25°
2026-05-07 13:32 51.76608 9.48420 37040 ft 461 kts 25°
2026-05-07 13:33 51.82413 9.52891 37061 ft 463 kts 25°
2026-05-07 13:33 51.88155 9.57478 37067 ft 463 kts 26°
2026-05-07 13:34 51.96733 9.64693 37069 ft 463 kts 27°
2026-05-07 13:35 52.02463 9.69497 37074 ft 463 kts 26°
2026-05-07 13:35 52.08200 9.74264 37076 ft 463 kts 27°
2026-05-07 13:36 52.13902 9.79019 37077 ft 463 kts 27°
2026-05-07 13:36 52.19635 9.83818 37082 ft 463 kts 27°
2026-05-07 13:37 52.25366 9.88646 37084 ft 463 kts 27°
2026-05-07 13:37 52.31104 9.93423 37089 ft 463 kts 26°
2026-05-07 13:38 52.36834 9.98119 37101 ft 464 kts 26°
2026-05-07 13:38 52.42598 10.02875 37107 ft 464 kts 26°
2026-05-07 13:39 52.48350 10.07655 37093 ft 464 kts 26°
2026-05-07 13:39 52.54092 10.12443 37094 ft 463 kts 26°
2026-05-07 13:40 52.59800 10.17216 37094 ft 463 kts 26°
2026-05-07 13:40 52.65546 10.22024 37094 ft 463 kts 27°
2026-05-07 13:41 52.71288 10.26859 37101 ft 464 kts 27°
2026-05-07 13:41 52.77032 10.31704 37089 ft 464 kts 27°
2026-05-07 13:42 52.82740 10.36523 37090 ft 464 kts 27°
2026-05-07 13:42 52.88479 10.41388 37094 ft 464 kts 27°
2026-05-07 13:43 52.94218 10.46279 37090 ft 464 kts 27°
2026-05-07 13:43 52.99958 10.51176 37086 ft 464 kts 27°
2026-05-07 13:44 53.05654 10.56062 37083 ft 464 kts 27°
2026-05-07 13:44 53.11388 10.60989 37079 ft 464 kts 27°
2026-05-07 13:45 53.17129 10.65921 37075 ft 464 kts 27°
2026-05-07 13:45 53.22864 10.70862 37075 ft 464 kts 27°
2026-05-07 13:46 53.28596 10.75832 37075 ft 464 kts 27°
2026-05-07 13:46 53.34290 10.80793 37074 ft 464 kts 27°
2026-05-07 13:47 53.40024 10.85782 37074 ft 465 kts 27°
2026-05-07 13:47 53.45761 10.90792 37078 ft 465 kts 27°
2026-05-07 13:48 53.51493 10.95822 37085 ft 465 kts 27°
2026-05-07 13:48 53.57187 11.00830 37092 ft 465 kts 27°
2026-05-07 13:49 53.62918 11.05894 37094 ft 465 kts 27°
2026-05-07 13:49 53.68654 11.10953 37099 ft 465 kts 27°
2026-05-07 13:50 53.74388 11.16042 37099 ft 466 kts 27°
2026-05-07 13:50 53.80083 11.21121 37100 ft 466 kts 27°
2026-05-07 13:51 53.85817 11.26247 37099 ft 466 kts 27°
2026-05-07 13:51 53.91546 11.31394 37099 ft 466 kts 27°
2026-05-07 13:52 53.97278 11.36542 37102 ft 466 kts 27°
2026-05-07 13:52 54.02970 11.41658 37107 ft 466 kts 27°
2026-05-07 13:53 54.08699 11.46841 37111 ft 466 kts 27°
2026-05-07 13:53 54.14420 11.52039 37118 ft 466 kts 27°
2026-05-07 13:54 54.20144 11.57246 36536 ft 469 kts 27°
2026-05-07 13:54 54.23037 11.59884 35650 ft 473 kts 27°
2026-05-07 13:54 54.25900 11.62503 34956 ft 472 kts 27°
2026-05-07 13:54 54.28787 11.65150 34335 ft 469 kts 27°
2026-05-07 13:55 54.31656 11.67781 33645 ft 466 kts 27°
2026-05-07 13:55 54.34511 11.70398 32782 ft 466 kts 27°
2026-05-07 13:55 54.37374 11.73025 31837 ft 467 kts 27°
2026-05-07 13:55 54.40246 11.75669 30854 ft 470 kts 27°
2026-05-07 13:56 54.43135 11.78341 29807 ft 473 kts 27°
2026-05-07 13:56 54.46056 11.81005 28582 ft 477 kts 26°
2026-05-07 13:56 54.48998 11.83490 27556 ft 477 kts 24°
2026-05-07 13:56 54.52008 11.85859 26636 ft 475 kts 23°
2026-05-07 13:57 54.55010 11.88127 25771 ft 471 kts 22°
2026-05-07 13:57 54.58010 11.90376 24873 ft 469 kts 22°
2026-05-07 13:57 54.60981 11.92655 24050 ft 466 kts 25°
2026-05-07 13:57 54.63756 11.95507 23212 ft 463 kts 33°
2026-05-07 13:58 54.66414 11.98589 22404 ft 458 kts 33°
2026-05-07 13:58 54.69041 12.01644 21684 ft 453 kts 33°
2026-05-07 13:58 54.71607 12.04624 21010 ft 447 kts 33°
2026-05-07 13:58 54.74175 12.07595 20336 ft 441 kts 33°
2026-05-07 13:59 54.76689 12.10505 19279 ft 430 kts 33°
2026-05-07 13:59 54.79155 12.13365 18104 ft 422 kts 33°
2026-05-07 13:59 54.81570 12.16171 17048 ft 411 kts 33°
2026-05-07 13:59 54.83870 12.18853 16657 ft 386 kts 33°
2026-05-07 14:00 54.86046 12.21395 16171 ft 368 kts 33°
2026-05-07 14:00 54.88158 12.23861 15677 ft 365 kts 33°
2026-05-07 14:00 54.90264 12.26322 15171 ft 364 kts 33°
2026-05-07 14:00 54.92386 12.28735 14660 ft 369 kts 28°
2026-05-07 14:01 54.94769 12.30208 14119 ft 370 kts
2026-05-07 14:01 54.97312 12.30332 13218 ft 363 kts 356°
2026-05-07 14:01 54.99838 12.30043 12303 ft 365 kts 355°
2026-05-07 14:01 55.02360 12.29705 11779 ft 361 kts 355°
2026-05-07 14:02 55.04852 12.29355 11229 ft 358 kts 355°
2026-05-07 14:02 55.07323 12.28992 10672 ft 355 kts 355°
2026-05-07 14:02 55.09746 12.28616 10379 ft 339 kts 355°
2026-05-07 14:02 55.11997 12.28253 10241 ft 312 kts 355°
2026-05-07 14:03 55.14074 12.27909 10057 ft 291 kts 355°
2026-05-07 14:03 55.16058 12.27578 9526 ft 283 kts 355°
2026-05-07 14:03 55.18001 12.27256 8921 ft 279 kts 355°
2026-05-07 14:03 55.19905 12.27076 8565 ft 276 kts
2026-05-07 14:04 55.21810 12.27292 8204 ft 272 kts
2026-05-07 14:04 55.23681 12.27568 7644 ft 267 kts
2026-05-07 14:04 55.25455 12.27840 7511 ft 246 kts
2026-05-07 14:04 55.27113 12.28098 7177 ft 235 kts
2026-05-07 14:05 55.28729 12.28353 6714 ft 231 kts
2026-05-07 14:05 55.30325 12.28609 6218 ft 229 kts
2026-05-07 14:05 55.31906 12.28868 5746 ft 229 kts
2026-05-07 14:05 55.33464 12.29127 5451 ft 227 kts
2026-05-07 14:06 55.35028 12.29388 5132 ft 225 kts
2026-05-07 14:06 55.36587 12.29650 4816 ft 224 kts
2026-05-07 14:06 55.38138 12.29909 4485 ft 223 kts
2026-05-07 14:06 55.39631 12.30574 4154 ft 223 kts 27°
2026-05-07 14:07 55.40868 12.32196 3836 ft 223 kts 40°
2026-05-07 14:07 55.41642 12.33383 3606 ft 223 kts 40°
2026-05-07 14:07 55.42806 12.35178 3276 ft 222 kts 40°
2026-05-07 14:07 55.43937 12.36929 3149 ft 213 kts 40°
2026-05-07 14:08 55.45038 12.38606 3046 ft 204 kts 39°
2026-05-07 14:08 55.46423 12.40706 2952 ft 191 kts 39°
2026-05-07 14:08 55.47408 12.42201 2983 ft 184 kts 39°
2026-05-07 14:08 55.48364 12.43684 2888 ft 183 kts 40°
2026-05-07 14:09 55.49007 12.44686 2761 ft 181 kts 39°
2026-05-07 14:09 55.49942 12.46114 2523 ft 179 kts 39°
2026-05-07 14:09 55.50864 12.47514 2261 ft 170 kts 39°
2026-05-07 14:09 55.51730 12.48858 2007 ft 161 kts 40°
2026-05-07 14:10 55.52543 12.50105 1803 ft 150 kts 38°
2026-05-07 14:10 55.53572 12.51638 1526 ft 144 kts 40°
2026-05-07 14:10 55.54324 12.52788 1347 ft 141 kts 39°
2026-05-07 14:10 55.54813 12.53538 1253 ft 138 kts 39°
2026-05-07 14:11 55.55514 12.54633 1052 ft 135 kts 39°
2026-05-07 14:11 55.56221 12.55714 847 ft 135 kts 40°
2026-05-07 14:11 55.56920 12.56799 666 ft 134 kts 38°
2026-05-07 14:11 55.57619 12.57877 477 ft 133 kts 39°
2026-05-07 14:12 55.58316 12.58948 310 ft 133 kts 39°
2026-05-07 14:12 55.59007 12.60021 121 ft 132 kts 39°
2026-05-07 14:12 55.59680 12.61059 26 ft 118 kts 40°
2026-05-07 14:12 55.60176 12.61826 26 ft 69 kts 41°
2026-05-07 14:13 55.60434 12.62215 26 ft 30 kts 34°
2026-05-07 14:13 55.60618 12.62341 26 ft 27 kts 11°
2026-05-07 14:13 55.60798 12.62419 24 ft 27 kts 28°
2026-05-07 14:13 55.60943 12.62632 24 ft 28 kts 41°
2026-05-07 14:14 55.61090 12.62858 24 ft 28 kts 41°
2026-05-07 14:14 55.61238 12.63088 26 ft 29 kts 41°
2026-05-07 14:14 55.61389 12.63322 24 ft 29 kts 41°
2026-05-07 14:14 55.61541 12.63558 24 ft 29 kts 42°
2026-05-07 14:15 55.61690 12.63788 24 ft 27 kts 40°
2026-05-07 14:15 55.61830 12.64005 24 ft 26 kts 41°
2026-05-07 14:15 55.61987 12.64166 24 ft 27 kts 25°
2026-05-07 14:15 55.62147 12.64299 23 ft 24 kts 25°
2026-05-07 14:16 55.62291 12.64400 23 ft 21 kts 15°
2026-05-07 14:16 55.62420 12.64461 24 ft 17 kts 15°
2026-05-07 14:16 55.62499 12.64470 25 ft 9 kts 323°
2026-05-07 14:16 55.62539 12.64370 24 ft 11 kts 303°
2026-05-07 14:17 55.62583 12.64264 24 ft 10 kts 325°
2026-05-07 14:17 55.62647 12.64298 26 ft 10 kts 25°
2026-05-07 14:17 55.62715 12.64348 25 ft 9 kts 25°
2026-05-07 14:17 55.62746 12.64357 24 ft 3 kts 329°
2026-05-07 14:18 55.62758 12.64329 24 ft 2 kts 302°
2026-05-07 14:18 55.62763 12.64314 24 ft 1 kts 299°
2026-05-07 14:18 55.62764 12.64311 24 ft 0 kts 298°
2026-05-07 14:18 55.62765 12.64307 24 ft 0 kts 298°